Las Vegas, NV

10:04 AM PDT on September 22, 2017 (GMT -0700)
McCarran International

Weather History for KLAS - October, 2011

Change the Weather History Date:

Sunday, October 16, 2011

  Actual Average Record
Temperature  
Mean Temperature 80 °F 70 °F  
Max Temperature 94 °F 81 °F 96 °F (1991)
Min Temperature 65 °F 58 °F 42 °F (1984)
Degree Days  
Heating Degree Days 0 1  
Month to date heating degree days 18 6  
Since 1 July heating degree days 18 7  
Cooling Degree Days 15 5  
Month to date cooling degree days 121 129  
Year to date cooling degree days 3450 3506  
Growing Degree Days 28 (Base 50)    
Moisture  
Dew Point 32 °F    
Average Humidity 22    
Maximum Humidity 31    
Minimum Humidity 12    
Precipitation  
Precipitation 0.00 in 0.01 in 0.06 in (2015)
Month to date precipitation 0.21 0.11  
Year to date precipitation 2.09 3.17  
Snow  
Snow 0.00 in 0.00 in 0.00 in ()
Month to date snowfall 0.0 0.0  
Since 1 July snowfall 0.0 0.0  
Since 1 September snowfall 0.0 0.0  
Snow Depth 0.00 in    
Sea Level Pressure  
Sea Level Pressure 29.86 in    
Wind  
Wind Speed 8 mph (SSW)    
Max Wind Speed 24 mph    
Max Gust Speed 29 mph    
Visibility 10 miles    
Events      
T = Trace of Precipitation, MM = Missing Value Source: NWS Daily Summary

Daily Weather History Graph

Daily Weather History Graph

Search for Another Location

Airport or City:

Trip Planner

Search our weather history database for the weather conditions in past years. The results will help you decide how hot, cold, wet, or windy it might be!

Date:

Astronomy

Oct. 16, 2011 Rise Set
Actual Time 6:48 AM PDT 6:03 PM PDT
Civil Twilight 6:22 AM PDT 6:29 PM PDT
Nautical Twilight 5:52 AM PDT 6:59 PM PDT
Astronomical Twilight 5:22 AM PDT 7:28 PM PDT
Moon 9:01 PM PDT (10/16) 11:01 AM PDT (10/16)
Length of Visible Light 12h 07m
Length of Day
11h 15m
Waning Gibbous, 81% of the Moon is Illuminated
Oct 16
Waning Gibbous
Oct 19
Last Quarter
Oct 26
New
Nov 2
First Quarter
Nov 10
Full

Hourly Weather History & Observations

Time (PDT) Temp. Dew Point Humidity Pressure Visibility Wind Dir Wind Speed Gust Speed Precip Events Conditions
12:56 AM 73.0 °F 26.1 °F 17% 29.83 in 10.0 mi SSW 8.1 mph - N/A   Clear
1:56 AM 72.0 °F 27.0 °F 19% 29.83 in 10.0 mi SSW 8.1 mph - N/A   Clear
2:56 AM 69.8 °F 28.4 °F 21% 29.90 in 10.0 mi SSW 6.9 mph - N/A   Clear
3:56 AM 69.1 °F 30.9 °F 24% 29.83 in 10.0 mi WSW 6.9 mph - N/A   Clear
4:56 AM 68.0 °F 30.9 °F 25% 29.85 in 10.0 mi SSW 5.8 mph - N/A   Clear
5:56 AM 66.0 °F 33.1 °F 29% 29.86 in 10.0 mi WSW 5.8 mph - N/A   Clear
6:56 AM 64.9 °F 33.1 °F 31% 29.87 in 10.0 mi SSW 5.8 mph - N/A   Clear
7:56 AM 68.0 °F 34.0 °F 28% 29.89 in 10.0 mi SSW 5.8 mph - N/A   Partly Cloudy
8:56 AM 73.0 °F 32.0 °F 22% 29.91 in 10.0 mi Calm Calm - N/A   Partly Cloudy
9:56 AM 78.1 °F 28.9 °F 17% 29.90 in 10.0 mi Calm Calm - N/A   Partly Cloudy
10:56 AM 81.0 °F 33.1 °F 18% 29.90 in 10.0 mi SE 4.6 mph - N/A   Partly Cloudy
11:56 AM 82.4 °F 32.0 °F 16% 29.95 in 10.0 mi Calm Calm - N/A   Partly Cloudy
12:56 PM 86.0 °F 32.0 °F 14% 29.86 in 10.0 mi SE 4.6 mph - N/A   Partly Cloudy
1:56 PM 88.0 °F 33.1 °F 14% 29.83 in 10.0 mi Variable 4.6 mph - N/A   Partly Cloudy
2:56 PM 91.9 °F 34.0 °F 13% 29.81 in 10.0 mi SE 6.9 mph - N/A   Partly Cloudy
3:56 PM 93.2 °F 33.8 °F 12% 29.87 in 10.0 mi WSW 19.6 mph 24.2 mph N/A   Partly Cloudy
4:56 PM 91.9 °F 34.0 °F 13% 29.80 in 10.0 mi West 16.1 mph 23.0 mph N/A   Partly Cloudy
5:56 PM 89.6 °F 33.8 °F 14% 29.87 in 10.0 mi SW 8.1 mph - N/A   Partly Cloudy
6:56 PM 86.0 °F 34.0 °F 16% 29.83 in 10.0 mi WSW 9.2 mph - N/A   Partly Cloudy
7:56 PM 86.0 °F 34.0 °F 16% 29.84 in 10.0 mi SW 10.4 mph - N/A   Partly Cloudy
8:56 PM 82.0 °F 34.0 °F 18% 29.85 in 10.0 mi SSW 10.4 mph - N/A   Partly Cloudy
9:56 PM 80.1 °F 35.1 °F 20% 29.86 in 10.0 mi SSW 9.2 mph - N/A   Partly Cloudy
10:56 PM 77.0 °F 35.1 °F 22% 29.88 in 10.0 mi SSW 12.7 mph - N/A   Partly Cloudy
11:56 PM 77.0 °F 35.1 °F 22% 29.88 in 10.0 mi SSW 10.4 mph - N/A   Clear